Location: Gökben Yaylas?
(36.8988°N, 29.6291°E)
Time: 04:45:43
(UTC+00:00)

Cosmos 1782 - Pass Details

Date: 15 May 2026
Orbit: 458 x 463 km, 82.5° (Epoch: 6 June)

Event Time Altitude Azimuth Distance (km) Brightness Sun altitude
Exits shadow 17:44:45 - 170° (S) 2,338 5.6 -8.3°
Reaches altitude 10° 17:46:33 10° 163° (SSE) 1,601 4.8 -8.6°
Maximum altitude 17:49:51 40° 93° (E) 695 2.9 -9.2°
Drops below altitude 10° 17:53:10 10° 23° (NNE) 1,618 5.3 -9.7°
Sets 17:55:20 0° 15° (NNE) 2,500 6.4 -10.1°
